Temperature
17 17 18 18 17 18 18 18 18 18 18 18 18 17 17 17 17 17 18 18 18 18 18 18 18 18 18 18 18 18 18 18 18 18 18 18 18 18 18 18 18 18 18
17 17 17 17 17 17 17 17 17 17 17 17 17 17 17 17 17 17 17 17 17 17 17 17 18 18 18 18 18 18 18 18 18 18 18 18 18 18 18 18 18 18 18
17 17 17 17 17 17 17 17 17 17 17 17 17 17 17 17 17 17 17 17 17 17 17 17 17 17 17 18 18 18 18 18 18 18 18 17 17 18 18 18 18 18 18
16 16 16 17 17 17 17 17 17 17 17 17 17 17 17 17 17 17 17 17 17 17 17 17 17 17 17 17 17 18 18 18 18 17 17 17 17 18 18 18 18 18 18
16 16 16 17 17 17 17 17 17 17 17 16 16 16 16 16 16 16 16 16 16 16 16 17 17 17 17 17 17 17 17 17 18 17 17 17 17 18 18 18 18 18 18
16 16 16 17 17 16 16 16 16 16 16 16 16 16 16 16 16 16 16 16 16 16 16 16 16 16 17 17 17 17 17 17 17 16 16 17 17 17 17 17 18 18 18
16 16 16 16 16 16 16 16 16 16 16 15 15 15 15 15 15 15 16 15 15 15 16 16 16 16 16 17 17 17 17 17 16 16 16 17 17 17 17 17 17 17 18
16 16 16 16 16 16 16 16 16 15 15 15 15 15 15 15 15 15 15 15 15 15 16 16 16 16 16 16 17 17 17 17 17 17 16 16 17 17 17 17 17 17 17
16 16 16 16 16 16 16 16 15 15 15 15 15 15 15 15 15 15 15 15 15 15 16 16 16 16 16 16 16 16 17 17 16 17 17 16 17 17 17 17 17 17 17
16 16 16 16 16 16 16 16 16 15 15 15 15 15 15 15 15 15 15 15 15 16 16 16 16 16 16 16 16 16 17 17 16 17 17 16 17 17 17 17 17 17 17
16 16 16 16 16 16 16 15 15 16 15 15 15 15 15 15 15 15 15 15 15 15 15 16 16 16 16 16 16 16 16 16 16 16 16 16 17 17 17 17 17 17 17
17 17 17 16 16 16 16 16 15 15 15 15 15 15 15 15 15 15 15 15 15 15 15 15 16 16 16 16 16 16 16 16 16 16 16 16 16 16 17 17 17 17 17
17 17 17 17 16 16 16 16 16 16 15 15 15 15 15 15 15 15 15 15 15 15 15 15 16 16 16 16 16 16 16 16 16 16 16 16 16 16 16 17 17 17 17
17 17 17 17 17 16 16 16 16 16 16 16 15 15 15 15 15 15 15 15 15 15 15 15 15 16 16 16 16 16 16 16 16 16 16 16 16 16 16 16 17 17 17
17 17 17 17 17 16 16 16 16 16 16 16 15 15 15 16 16 16 16 15 15 15 15 15 16 16 16 16 16 16 16 16 16 16 16 16 16 16 16 16 16 16 17
17 17 17 17 16 16 16 16 16 16 16 15 15 15 15 15 15 15 15 15 15 15 15 15 15 15 16 16 15 15 15 16 15 15 15 16 16 16 16 16 16 16 16
18 18 17 17 17 16 16 16 16 16 16 15 15 15 15 15 15 15 15 15 15 15 15 15 15 15 15 15 15 15 15 15 15 15 15 15 15 16 16 16 16 16 16
18 18 17 17 17 16 16 16 16 16 15 15 15 15 15 15 15 15 15 15 15 15 15 15 15 15 15 15 15 15 15 15 15 15 15 15 15 15 15 16 16 16 16
18 18 17 17 17 16 16 16 16 15 15 15 15 15 15 15 15 15 15 15 15 15 15 15 15 15 15 15 15 15 15 15 15 15 15 15 15 15 15 15 16 16 16
18 17 17 17 17 16 16 16 15 15 15 15 15 15 15 15 15 15 15 15 15 15 15 15 15 15 15 15 15 15 15 15 15 15 15 15 15 15 15 15 15 15 16
18 17 17 17 17 16 16 16 15 15 15 15 14 14 14 14 14 15 15 15 15 15 15 15 15 15 15 15 15 15 15 15 15 15 15 15 15 15 15 15 15 15 15
18 17 17 17 17 16 16 16 15 15 15 15 15 14 14 14 14 14 15 15 15 15 15 15 15 15 15 15 15 16 15 15 14 14 14 14 15 15 15 14 15 15 15
18 18 17 17 17 16 16 16 16 15 15 15 14 14 15 15 15 15 15 15 15 15 15 15 14 15 15 15 15 15 16 16 15 14 14 14 14 14 14 14 14 14 14
18 18 18 17 17 16 16 16 16 15 15 15 15 14 15 15 15 15 15 15 15 15 15 15 15 14 15 15 15 15 15 15 15 15 14 14 14 14 14 14 14 14 14
18 18 18 17 17 17 16 16 16 15 15 15 15 14 14 15 15 15 15 15 15 15 15 15 15 15 15 15 15 15 15 15 15 15 15 14 14 14 14 14 14 14 14
18 18 18 17 17 17 17 16 16 16 15 15 15 15 15 15 15 15 15 15 15 15 15 15 15 15 15 15 15 15 15 15 15 15 15 14 14 14 13 14 14 14 14
Wind_Speed
4 5 7 6 8 8 9 9 9 9 10 10 11 11 11 10 10 10 10 10 10 10 9 9 9 9 9 9 9 8 8 8 7 7 7 7 7 7 7 6 4 4 6
5 7 8 7 8 9 10 10 10 9 10 10 11 11 10 10 10 10 10 9 9 9 9 9 8 8 8 8 8 7 7 7 6 6 4 5 7 7 7 7 8 7 6
6 7 8 8 9 10 10 10 10 10 10 11 10 10 9 9 9 9 9 9 8 8 8 8 7 7 7 7 6 6 6 6 6 3 1 3 7 8 7 7 8 7 7
7 7 8 9 10 10 10 11 11 10 10 10 10 10 10 9 9 9 8 8 8 7 7 6 7 7 6 6 6 6 6 6 5 2 1 5 6 9 8 7 8 7 7
7 8 10 9 10 11 11 11 11 10 10 10 10 9 9 9 8 8 8 8 7 7 7 6 6 5 5 5 5 5 6 5 2 2 4 5 6 8 8 8 8 8 7
8 9 11 9 11 11 11 11 11 11 11 10 10 9 9 8 8 8 7 7 7 6 6 6 5 5 5 5 6 6 6 3 1 4 4 4 6 8 8 8 8 8 8
9 10 12 11 11 11 11 11 11 11 11 10 10 9 9 9 8 8 7 6 6 6 6 6 5 5 5 5 5 5 4 2 2 3 3 4 7 7 7 8 8 8 8
9 9 11 12 11 11 10 10 10 10 10 9 9 8 8 8 7 7 6 5 5 5 5 5 5 5 5 5 5 4 3 4 3 3 4 5 8 7 7 8 7 8 8
9 9 9 10 11 11 10 10 10 10 9 8 8 7 7 6 6 6 5 5 5 5 5 5 5 5 5 4 4 4 4 3 2 3 3 6 7 7 7 8 7 7 8
8 8 8 9 9 9 11 11 9 9 8 7 7 6 5 5 5 4 4 5 5 5 5 5 5 5 5 5 5 4 1 3 3 4 4 8 7 7 7 8 8 8 8
8 7 7 7 8 8 8 8 7 7 6 4 5 5 1 3 4 4 8 6 5 5 5 5 5 5 4 6 5 2 2 2 4 4 7 9 7 7 8 8 9 9 8
8 7 7 7 7 6 6 5 5 5 5 4 5 5 4 5 4 4 6 5 5 4 4 5 3 3 3 4 6 3 2 4 4 5 8 8 7 7 8 8 8 8 9
7 7 6 6 6 5 4 4 4 4 4 5 5 5 4 4 3 3 3 4 4 2 4 5 3 3 4 4 3 4 5 4 4 6 9 8 7 7 8 8 8 9 9
6 6 6 5 5 5 4 4 3 4 4 4 4 5 4 4 3 4 3 4 3 3 3 3 3 4 5 6 5 5 6 4 5 6 9 10 9 9 9 9 9 9 9
7 6 5 4 4 4 4 2 3 4 4 5 4 4 4 3 3 3 3 3 3 3 3 3 4 5 5 6 6 6 6 6 6 7 8 11 11 10 10 10 10 10 11
7 7 6 4 4 3 3 3 4 4 4 4 4 5 5 4 4 3 4 3 3 3 4 3 5 5 5 6 6 7 7 7 7 6 7 9 12 13 12 12 12 12 12
7 7 6 4 4 4 4 4 4 4 4 4 4 4 5 5 4 4 3 4 4 4 4 4 5 5 5 6 7 7 7 7 7 7 7 7 9 12 14 14 14 14 13
7 6 6 5 5 5 4 4 4 5 5 4 4 4 5 5 5 5 4 4 4 3 4 4 3 5 5 5 6 6 6 6 7 7 8 8 7 7 12 14 15 14 14
6 6 7 6 6 5 5 5 5 5 5 5 5 5 5 6 5 5 4 4 4 4 3 3 3 4 5 5 6 6 6 6 6 7 8 9 9 8 8 11 13 15 15
6 6 7 7 6 6 5 5 5 5 5 5 5 5 6 5 5 5 4 4 4 4 3 4 4 4 4 4 6 6 6 6 6 6 6 8 8 9 9 8 8 11 14
7 7 7 7 7 6 5 4 4 4 4 4 5 6 5 5 5 5 4 5 4 4 4 4 4 5 5 4 5 5 6 7 6 6 6 6 8 8 9 9 8 8 8
9 8 8 7 7 6 4 4 4 4 4 4 4 5 5 6 6 5 5 4 4 4 4 4 3 3 4 2 2 3 3 4 5 6 5 5 6 7 8 9 9 9 9
9 9 8 8 7 7 6 4 4 4 4 4 4 4 5 5 6 6 5 5 4 3 3 3 3 3 3 2 2 1 1 2 3 4 6 6 6 6 6 8 9 10 9
10 9 8 9 8 7 7 5 5 3 3 4 3 4 5 5 6 5 5 5 4 4 3 3 2 2 1 2 2 2 2 2 1 3 4 5 6 7 7 7 8 9 9
10 9 8 9 8 7 6 6 5 4 4 4 4 4 4 5 5 6 5 4 4 4 4 4 3 2 1 1 1 2 2 2 1 2 3 3 5 6 6 6 7 8 9
10 9 9 9 8 7 7 7 5 5 5 5 5 4 4 4 4 5 5 4 4 4 4 3 3 3 3 2 2 1 1 1 2 2 3 4 4 4 5 6 6 7 8
Wind_Direction
100 95 91 97 102 104 106 110 114 115 112 110 108 105 103 101 99 96 93 89 86 83 80 78 76 75 73 73 72 69 67 66 66 68 70 67 59 55 50 40 23 74 67
102 98 99 99 98 99 102 103 105 105 105 104 102 100 99 98 96 94 90 87 84 81 78 75 75 74 70 67 68 66 63 61 59 64 69 86 69 54 50 43 30 47 54
103 102 107 97 96 94 96 96 98 100 101 101 101 101 100 96 93 90 88 85 82 78 75 73 72 71 69 63 61 63 60 55 54 54 313 77 84 67 54 50 51 52 50
97 97 93 98 97 94 92 92 92 92 95 96 97 97 96 93 91 89 87 84 81 76 75 73 70 68 67 62 58 61 60 55 44 324 64 64 66 70 55 53 53 50 47
95 94 92 92 94 93 92 94 92 90 91 92 94 94 93 92 90 86 83 80 77 73 72 71 69 65 64 63 61 65 64 59 32 337 54 59 62 65 55 53 52 49 44
100 95 92 88 93 94 93 93 91 89 87 87 88 88 87 87 85 79 76 74 72 69 68 68 65 61 62 64 66 68 67 48 279 63 57 61 66 64 54 53 51 47 42
98 95 94 87 90 92 91 91 90 89 87 85 83 82 81 79 78 75 73 73 73 70 66 65 62 60 62 67 69 70 68 9 53 73 69 69 64 57 52 53 51 45 39
99 98 101 94 87 86 88 91 90 87 84 81 81 79 78 76 73 71 68 68 68 66 63 63 60 62 64 67 72 71 58 320 95 79 75 73 64 56 56 51 45 40 36
100 99 99 105 103 98 89 85 84 81 80 77 74 74 75 72 68 66 64 61 63 61 62 60 61 64 67 65 67 70 63 1 58 77 78 71 67 59 56 50 41 38 35
104 100 100 98 98 102 98 84 76 74 72 75 72 67 74 97 98 90 91 68 60 65 67 65 65 70 73 71 62 64 81 242 66 87 75 74 64 59 54 48 43 39 36
114 111 107 103 100 95 89 90 89 89 78 100 104 96 135 91 84 100 62 61 63 68 71 71 74 82 100 108 84 80 228 81 78 68 66 64 63 60 55 49 44 38 32
126 118 113 112 109 99 86 86 78 80 76 66 66 67 67 63 59 60 97 84 80 84 108 93 105 156 210 117 120 182 100 87 85 81 72 57 60 60 53 49 45 38 32
126 124 121 116 111 101 92 73 67 74 80 79 68 72 66 72 82 72 86 117 107 124 108 115 154 97 89 78 80 89 71 69 72 73 71 54 55 57 53 49 43 39 37
138 131 127 124 117 102 89 77 78 83 75 74 69 57 61 65 62 66 67 68 79 81 77 79 80 93 92 95 92 89 89 80 76 74 71 54 52 56 53 48 44 41 42
144 144 134 128 114 107 92 77 85 83 75 82 65 51 54 58 62 66 70 72 69 74 89 81 91 91 87 89 82 77 79 76 75 75 80 65 56 56 54 51 48 45 44
155 149 140 139 126 120 112 98 84 87 92 79 70 54 54 62 61 59 71 69 67 68 74 89 91 95 91 87 84 78 73 76 77 77 78 85 72 59 54 53 50 44 43
148 146 138 137 131 119 99 88 91 91 85 78 68 58 63 56 56 57 60 71 69 83 98 89 96 98 98 97 89 81 74 66 72 73 69 69 79 74 61 52 49 44 43
148 144 140 147 138 118 108 104 99 90 81 76 71 58 58 56 55 59 58 69 70 83 99 100 105 104 97 94 87 80 79 69 66 67 70 69 61 65 71 60 53 47 45
156 154 150 144 136 125 116 108 100 92 81 76 70 60 54 53 55 66 58 64 78 82 87 102 103 103 100 98 93 83 76 70 64 60 66 67 64 59 67 77 68 54 45
160 159 151 142 144 134 128 122 113 98 89 78 71 65 52 49 54 67 75 74 78 86 88 97 102 99 103 108 98 86 75 72 65 58 62 67 60 56 54 55 66 66 55
168 167 161 161 157 152 145 140 127 111 103 89 72 61 58 56 59 67 68 72 69 82 85 104 114 120 115 115 114 103 89 73 67 63 59 61 63 56 54 51 50 50 59
177 178 174 171 169 164 152 136 123 114 102 90 87 75 61 60 59 66 73 82 82 86 91 97 109 118 115 118 140 144 131 102 68 59 63 59 56 59 54 50 51 49 43
183 184 180 175 173 168 158 143 134 125 126 118 102 81 63 61 62 62 65 71 75 85 92 95 110 118 127 111 54 11 107 106 109 72 59 60 53 51 52 48 49 48 47
187 183 184 176 177 170 165 166 155 143 123 106 103 99 90 74 69 63 67 67 75 74 86 91 91 100 115 117 93 40 42 93 133 121 84 69 61 54 48 45 44 46 45
183 181 184 173 173 172 174 165 169 150 130 124 122 113 101 83 71 68 66 70 73 74 74 76 79 67 76 61 77 102 93 97 77 120 113 95 76 60 51 44 45 42 44
180 177 176 173 173 172 176 176 173 155 152 142 135 122 112 101 86 78 71 71 73 74 74 75 76 74 63 62 63 82 100 88 112 100 114 107 88 70 63 52 46 43 43
Height
1543 1543 1542 1543 1544 1544 1545 1545 1545 1546 1546 1546 1546 1547 1547 1547 1548 1548 1548 1548 1548 1548 1548 1548 1548 1548 1548 1548 1548 1548 1548 1547 1547 1547 1547 1546 1545 1545 1544 1543 1543 1543 1542
1543 1544 1543 1544 1545 1545 1546 1546 1546 1547 1547 1547 1547 1548 1548 1548 1548 1549 1549 1549 1549 1549 1549 1549 1549 1549 1549 1549 1549 1549 1548 1548 1548 1548 1547 1547 1546 1546 1545 1544 1543 1543 1543
1544 1545 1545 1545 1545 1546 1546 1547 1547 1547 1548 1548 1548 1548 1548 1549 1549 1549 1549 1549 1549 1549 1549 1550 1550 1550 1550 1549 1550 1549 1549 1549 1549 1549 1549 1550 1548 1547 1546 1545 1544 1544 1544
1546 1546 1546 1546 1546 1547 1547 1547 1547 1548 1548 1548 1548 1549 1549 1549 1549 1549 1549 1549 1550 1550 1550 1550 1550 1550 1550 1550 1550 1550 1550 1550 1550 1550 1551 1551 1550 1548 1547 1546 1546 1545 1545
1547 1547 1546 1547 1547 1547 1548 1548 1548 1548 1549 1549 1549 1549 1549 1550 1550 1550 1550 1550 1550 1550 1550 1550 1550 1550 1550 1550 1550 1550 1550 1550 1550 1551 1552 1551 1550 1549 1548 1548 1547 1546 1546
1548 1549 1548 1548 1548 1548 1548 1549 1549 1549 1549 1550 1550 1550 1550 1550 1551 1550 1550 1550 1550 1550 1550 1550 1550 1550 1550 1550 1550 1551 1551 1551 1552 1553 1552 1552 1552 1550 1550 1549 1548 1548 1547
1550 1550 1550 1549 1550 1550 1550 1550 1550 1551 1551 1551 1551 1551 1551 1551 1551 1551 1551 1551 1551 1551 1551 1551 1550 1551 1551 1551 1551 1551 1551 1552 1554 1553 1553 1553 1552 1551 1551 1550 1549 1549 1548
1551 1552 1551 1551 1551 1551 1552 1552 1552 1552 1552 1552 1552 1552 1552 1552 1552 1552 1552 1552 1552 1552 1552 1551 1551 1551 1551 1551 1551 1552 1552 1553 1554 1555 1554 1554 1553 1552 1552 1551 1550 1549 1548
1553 1553 1554 1554 1554 1553 1554 1554 1554 1554 1553 1553 1553 1553 1553 1553 1553 1553 1553 1553 1553 1553 1552 1552 1552 1552 1552 1552 1552 1553 1553 1553 1555 1556 1556 1555 1554 1553 1553 1552 1551 1550 1549
1554 1555 1556 1556 1556 1557 1557 1556 1555 1555 1555 1555 1555 1555 1555 1555 1555 1554 1554 1554 1554 1553 1553 1553 1553 1553 1553 1553 1553 1554 1554 1555 1557 1557 1557 1556 1554 1554 1554 1553 1552 1551 1550
1556 1557 1558 1558 1558 1559 1559 1558 1558 1557 1557 1557 1557 1556 1556 1558 1557 1557 1556 1555 1555 1555 1554 1554 1554 1554 1554 1555 1555 1555 1556 1557 1557 1558 1557 1556 1555 1555 1555 1554 1553 1552 1551
1558 1559 1560 1560 1560 1561 1560 1560 1560 1560 1559 1559 1559 1559 1559 1558 1558 1558 1556 1556 1556 1556 1556 1555 1555 1556 1556 1557 1557 1557 1558 1558 1559 1559 1558 1557 1557 1556 1556 1555 1554 1553 1552
1559 1560 1561 1561 1562 1562 1562 1562 1562 1561 1561 1561 1560 1560 1560 1560 1559 1559 1559 1558 1558 1558 1558 1557 1558 1558 1558 1558 1559 1559 1559 1560 1560 1560 1559 1558 1558 1557 1557 1556 1555 1554 1552
1560 1561 1562 1563 1563 1563 1563 1563 1563 1563 1563 1562 1562 1562 1562 1561 1561 1560 1560 1560 1559 1559 1559 1559 1559 1559 1560 1560 1560 1560 1561 1561 1561 1561 1559 1559 1559 1558 1558 1557 1556 1555 1554
1561 1562 1563 1563 1564 1564 1564 1564 1564 1564 1564 1563 1562 1563 1562 1562 1562 1561 1561 1560 1561 1560 1560 1560 1561 1561 1561 1561 1561 1562 1562 1562 1562 1562 1561 1560 1560 1560 1559 1558 1557 1556 1555
1562 1563 1564 1564 1565 1565 1565 1565 1565 1565 1564 1565 1564 1564 1564 1563 1563 1562 1562 1561 1561 1561 1561 1562 1562 1562 1562 1562 1562 1563 1563 1563 1563 1563 1563 1562 1561 1561 1560 1559 1559 1557 1556
1563 1564 1564 1565 1566 1566 1566 1566 1566 1566 1566 1566 1565 1565 1565 1564 1564 1563 1563 1563 1562 1562 1563 1563 1563 1563 1564 1564 1564 1564 1564 1565 1565 1565 1564 1564 1564 1562 1562 1561 1560 1559 1558
1563 1564 1565 1565 1566 1567 1567 1567 1567 1567 1567 1567 1566 1566 1566 1565 1565 1564 1564 1564 1563 1563 1564 1564 1564 1565 1565 1565 1566 1566 1566 1566 1566 1566 1566 1566 1565 1565 1564 1563 1562 1561 1560
1563 1565 1566 1566 1567 1567 1567 1567 1567 1568 1567 1567 1567 1567 1567 1566 1566 1565 1564 1564 1565 1565 1565 1565 1566 1566 1567 1567 1567 1567 1568 1568 1568 1568 1568 1567 1567 1566 1566 1564 1564 1563 1561
1563 1565 1566 1567 1568 1568 1568 1569 1569 1569 1569 1568 1568 1568 1567 1567 1567 1566 1566 1566 1566 1566 1566 1566 1566 1567 1567 1568 1569 1569 1569 1569 1569 1569 1569 1569 1568 1568 1567 1567 1566 1565 1563
1563 1565 1566 1567 1568 1568 1569 1570 1570 1570 1570 1570 1569 1569 1568 1568 1568 1567 1567 1567 1567 1567 1567 1568 1568 1568 1569 1569 1570 1570 1571 1571 1571 1570 1570 1570 1570 1569 1569 1568 1568 1567 1566
1562 1564 1566 1567 1568 1569 1570 1571 1571 1571 1571 1570 1570 1570 1570 1570 1569 1569 1569 1569 1568 1568 1569 1569 1569 1570 1570 1570 1571 1571 1572 1573 1572 1572 1572 1571 1571 1571 1570 1570 1569 1568 1567
1562 1564 1566 1567 1568 1569 1570 1570 1571 1571 1572 1572 1572 1571 1571 1571 1570 1570 1570 1570 1570 1570 1570 1570 1570 1570 1571 1571 1572 1572 1572 1572 1573 1574 1573 1573 1572 1572 1572 1571 1570 1569 1568
1561 1563 1565 1567 1568 1569 1570 1571 1572 1572 1573 1573 1573 1573 1572 1572 1572 1571 1571 1571 1571 1571 1571 1571 1571 1572 1572 1572 1572 1572 1573 1573 1573 1574 1575 1575 1574 1573 1573 1572 1571 1570 1569
1559 1562 1564 1566 1568 1569 1570 1571 1572 1573 1573 1574 1574 1574 1574 1573 1573 1573 1572 1572 1572 1572 1572 1572 1572 1572 1573 1573 1573 1573 1572 1573 1574 1574 1575 1576 1576 1575 1574 1573 1573 1572 1571
1558 1560 1563 1565 1567 1568 1570 1571 1572 1573 1574 1574 1575 1575 1575 1575 1575 1574 1574 1574 1574 1574 1573 1573 1573 1573 1573 1573 1573 1573 1574 1574 1574 1575 1575 1576 1576 1576 1575 1574 1574 1573 1572